AirNav   ATP
 
 346 users online  

6M8 Marked Tree Municipal Airport
Marked Tree, Arkansas, USA

GOING TO MARKED TREE?


FAA INFORMATION EFFECTIVE 21 JUNE 2018

Location

FAA Identifier: 6M8
Lat/Long: 35-31-59.1250N / 090-24-00.3200W
35-31.985417N / 090-24.005333W
35.5330903 / -90.4000889
(estimated)
Elevation: 219 ft. / 66.8 m (surveyed)
Variation: 02E (1985)
From city: 1 mile E of MARKED TREE, AR
Time zone: UTC -5 (UTC -6 during Standard Time)
Zip code: 72365

Airport Operations

Airport use: Open to the public
Activation date: 03/1970
Control tower: no
ARTCC: MEMPHIS CENTER
FSS: JONESBORO FLIGHT SERVICE STATION
NOTAMs facility: JBR (NOTAM-D service available)
Attendance: IREG
Wind indicator: lighted
Segmented circle: yes
Lights: ACTVT MIRL RY 18/36 - CTAF.
Beacon: white-green (lighted land airport)
Operates sunset to sunrise.

Airport Communications

CTAF/UNICOM: 122.8

Nearby radio navigation aids

VOR radial/distance  VOR name  Freq  Var
GQEr015/11.8GILMORE VOR/DME113.0004E
JBRr156/22.5JONESBORO VOR/DME108.6000W
MEMr326/37.2MEMPHIS VORTAC117.5001E

Airport Services

Parking: tiedowns
Airframe service: NONE
Powerplant service: NONE

Runway Information

Runway 18/36

Dimensions: 3200 x 60 ft. / 975 x 18 m
Surface: asphalt, in fair condition
Weight bearing capacity: 
Single wheel: 8.0
Runway edge lights: medium intensity
RUNWAY 18  RUNWAY 36
Latitude: 35-32.249167N35-31.721667N
Longitude: 090-24.004500W090-24.006167W
Elevation: 219.0 ft.219.0 ft.
Gradient: 0.1%0.1%
Traffic pattern: leftleft
Markings: nonprecision, in good conditionnonprecision, in good condition
Visual slope indicator: 2-light PAPI on left (3.00 degrees glide path)2-light PAPI on left (3.00 degrees glide path)
Touchdown point: yes, no lightsyes, no lights
Obstructions: none15 ft. road, 500 ft. from runway, 20:1 slope to clear

Airport Ownership and Management from official FAA records

Ownership: Publicly-owned
Owner: CITY OF MARKED TREE
1 ELM STREET
MARKED TREE, AR 72365
Phone 870-358-3216
Manager: WAYNE HENDRIX
1 ELM STREET
MARKED TREE, AR 72365
Phone (870) 375-3025

Airport Operational Statistics

Aircraft based on the field: 1
Single engine airplanes: 1
    
Aircraft operations: avg 65/day *
84% local general aviation
15% transient general aviation
<1% military
<1% air taxi
* for 12-month period ending 31 August 2016

Additional Remarks

NUMEROUS AGRICULTURAL ACFT OPNS FM FEB-NOV 500 FT AGL AND BELOW.
FOR CD CTC MEM APCH AT 901-842-8457.

Instrument Procedures

There are no published instrument procedures at 6M8.

Some nearby airports with instrument procedures:

7M4 - Osceola Municipal Airport (21 nm NE)
KJBR - Jonesboro Municipal Airport (22 nm NW)
KMXA - Manila Municipal Airport (25 nm NE)
KAWM - West Memphis Municipal Airport (25 nm S)
M01 - General Dewitt Spain Airport (26 nm SE)
 
Loc | Ops | Rwys | IFR | FBO | Links
Com | Nav | Svcs | Stats | Notes


 
Area around 6M8 (Marked Tree Municipal Airport)
 
Road maps at: MapQuest Bing Google
 
Aerial photo
WARNING: Photo may not be current or correct
Aerial photo of 6M8 (Marked Tree Municipal Airport)
Photo courtesy of the Arkansas Department of Aeronautics
Taken in the Spring of 2007

Do you have a better or more recent aerial photo of Marked Tree Municipal Airport that you would like to share? If so, please send us your photo.

 
Sectional chart

 
Airport distance calculator
Flying to Marked Tree Municipal Airport? Find the distance to fly.

From to 6M8

Sunrise and sunset
Times for 16-Jul-2018
 Local
(UTC-5)
 Zulu
(UTC)
Morning civil twilight05:3010:30
Sunrise05:5910:59
Sunset20:1601:16
Evening civil twilight20:4501:45

Current date and time
Zulu (UTC)  16-Jul-2018 06:57:23
Local (UTC-5)  16-Jul-2018 01:57:23
 
METAR
KJBR 
22nm NW 
160653Z AUTO 00000KT 10SM FEW120 24/24 A2997 RMK AO2 SLP146 T02440244
KAWM 
25nm S 
160653Z AUTO 17005KT 10SM SCT085 25/24 A2997 RMK AO2 SLP142 T02500239
KNQA 
28nm SE 
160635Z AUTO 00000KT 10SM CLR 23/23 A3000 RMK A01
KMEM 
35nm SE 
160654Z 16005KT 10SM FEW100 OVC250 24/20 A2999 RMK AO2 SLP148 T02390206 $
KHKA 
37nm NE 
160653Z AUTO 00000KT 10SM FEW050 24/22 A2998 RMK AO2 SLP150 T02440222 $
KM19 
38nm W 
160556Z AUTO 28005KT 10SM CLR 25/23 A2999 RMK AO2 LTG DSNT S SLP156 T02500233 10250 20239 50005
KM04 
40nm E 
160540Z AUTO 00000KT 10SM SCT049 24/24 A3000 RMK A01
KARG 
43nm NW 
160556Z AUTO 25003KT 10SM 24/23 A2999 RMK AO2 SLP153 T02440233 10267 20244 57001 $
TAF
KJBR 
22nm NW 
160536Z 1606/1706 00000KT 6SM BR SCT250 TEMPO 1608/1612 3SM BR FM161300 31006KT P6SM FEW040 FM161900 26007KT P6SM VCSH SCT050 FM170100 25005KT P6SM FEW060 BKN200
NOTAMs
Click for the latest NOTAMs
NOTAMs are issued by the DoD/FAA and will open in a separate window not controlled by AirNav.

 

 
 

Would you like to see your business listed on this page?

 If your business provides an interesting product or service to pilots, flight crews, aircraft, or users of the Marked Tree Municipal Airport, you should consider listing it here.  To start the listing process, click on the button below
 
Add a business
 

Other Pages about Marked Tree Municipal Airport

Update a link
 
Copyright © AirNav, LLC. All rights reserved. Privacy Policy  Contact